THORAD DELTA 1 DEB, 8170

Orbit data source: Space-Track

THORAD DELTA 1 DEB, 8170 is space debris in SSO originally from a launch on Fri, 15 Nov 1974 UTC launched from the Air Force Western Test Range (AFWTR). Debris objects in space refer to the collection of defunct objects orbiting the Earth. Examples of debris include non-operational satellites, rocket bodies, and fragments generated from explosions, collisions, or faulty payload assembly.

Loading next visibility...
Identifier
8170, 1974-089AL
Orbit
SSO
Last TLE update
1 day ago
Origin
Manufacturer
Unknown
Mission
Spacecraft
Bus & Motor
Unknown
Mass
Unknown
Launch date (UTC)
1974-11-15 (50 years ago)
Launch vehicle
Unknown
Launch site
Air Force Western Test Range (AFWTR)
Object type
Payload
Rocket body
Debris
Shape & HBR
Unknown
Radar Cross Section
Small (<0.1 m²)

Expand to show TLE details & history

TLE from 1 day ago
0 THORAD DELTA 1 DEB
1 08170U 74089AL  25132.28017780  .00018490  00000-0  10867-1 0  9995
2 08170 101.6210  45.0835 0076882 355.7223 127.2221 14.06612181433302
Epoch: 2025-05-12T06:43Z
Definitive object data (Epoch: 2025-05-12T06:43:27.361Z)
Latitude
54.73382°
Longitude
-89.26023°
Altitude
913.876 km
Speed
7.383 km/s
True Right ascension
16h 07m 35s
True Declination
54° 34' 30"
Sunlit
Object was in daylight at TLE epoch
Visualization TLE readout
Latitude
-60.16978°
Longitude
-125.30818°
Altitude
912.832 km
Speed
7.385 km/s
Apparent Right ascension
11h 49m 45s
Apparent Declination
-53° 07' 39"
Sunlit
Object is in full shadow
Visualization observer readout
Local Sidereal Time
22:27:03
Azimuth
219.902° SW
Elevation
-70.717°
Doppler factor
1
Orbital elements
Apogee altitude
924.037 km
Perigee altitude
812.613 km
Semi-major axis
7,246.462 km
Eccentricity
0.0076882
Inclination
101.621°
RAAN
45.0835°
Arg. of periapsis
355.7223°
True anomaly
127.91957°
Mean anomaly
127.2221°
Eccentric anomaly
127.57124°
Mean motion
3.51847 °/min
BSTAR
0.010867
Orbital period
102.32 mins
Loading maneuver chart data...
Loading SW <> Apogee altitude chart data...
Loading historical data...
Loading historical data...
Loading historical data...
Loading historical data...
Loading historical data...
Loading historical data...
Loading historical data...

THORAD DELTA 1 DEB Visibility forecast

Observer location: undefined°, undefined°

Span
Click to sort rows by Start time (UTC) header in descending order
Start Az.
Max El. time (UTC)
Max El. Az.
Max El.
End time (UTC)
End Az.
5 mins2025-05-13 16:28:12.906Z84.319° E2025-05-13 16:30:12.906Z60.631° ENE14.952°2025-05-13 16:33:12.906Z25.09° NE
8 mins2025-05-13 18:07:12.906Z170.122° S2025-05-13 18:10:12.906Z208.141° SW43.315°2025-05-13 18:15:12.906Z338.438° N
9 mins2025-05-14 06:32:12.906Z40.103° NE2025-05-14 06:36:12.906Z97.404° ESE31.546°2025-05-14 06:41:12.906Z166.059° S
8 mins2025-05-14 08:13:12.906Z350.501° N2025-05-14 08:17:12.906Z292.442° WNW28.166°2025-05-14 08:21:12.906Z240.799° WSW
|